Location: Newark
(55.6150°N, 25.7300°E)
Time: 10:30:06
(UTC+00:00)

N. Korean satellite - Visible Passes

Search period start: 30 September 2020 00:00
Search period end: 10 October 2020 00:00
Orbit: 455 x 503 km, 97.2° (Epoch: 29 September)

Date Brightness Start Highest point End Pass type
(mag) Time Alt. Az. Time Alt. Az. Time Alt. Az.
30 Sep 9.6 03:07:30 10° NE 03:10:21 21° E 03:13:08 10° SE visible
01 Oct 10.1 02:42:27 10° ENE 02:44:01 12° E 02:45:34 10° ESE visible
03 Oct 8.9 03:22:27 10° NNE 03:25:39 29° E 03:28:48 10° SSE visible
04 Oct 9.8 02:56:57 10° NE 02:59:22 17° E 03:01:45 10° SE visible
05 Oct 10.6 16:21:29 10° WSW 16:22:51 12° W 16:24:14 10° WNW visible
06 Oct 8.1 03:37:27 10° NNE 03:40:54 41° E 03:44:14 10° S visible
07 Oct 9.3 03:11:44 10° NE 03:14:39 23° E 03:17:31 10° SSE visible
08 Oct 10.0 02:46:31 10° ENE 02:48:18 13° E 02:50:04 10° ESE visible
09 Oct 7.3 03:52:30 10° NNE 03:56:03 59° E 03:59:30 10° S visible
09 Oct 10.2 16:09:40 10° WSW 16:11:46 15° W 16:13:53 10° NW visible
